Location: Doverdale
(52.2833°N, 2.2000°W)
Time: 01:54:44
(UTC+00:00)

Cosmos 1980 Rocket - Pass Details

Date: 08 March 2021
Orbit: 828 x 851 km, 71.0° (Epoch: 15 April)

Event Time Altitude Azimuth Distance (km) Brightness Sun altitude
Rises 22:53:54 0° 326° (NW) 3,428 6.3 -39.1°
Reaches altitude 10° 22:57:15 10° 345° (NNW) 2,491 5.3 -39.3°
Enters shadow 23:00:23 17° 19° (NNE) 2,014 4.5 -39.5°
